239ALFEROV (RS61S)

Last updated on Fri Dec 19 2025 00:03:12 GMT+0000 (Coordinated Universal Time)

1 64881U 25155F 25352.59089178 .00012436 00000+0 47362-3 0 9999 2 64881 97.4347 316.4238 0010462 94.4664 265.7770 15.26819617 53194
UTC large
Height (km)
Speed (km/s)
/
Latitude / Longitude
Inclination (degrees)
Orbital Period (minutes)
Azimuth
Elevation
Range (km)
Doppler Factor

Next 0 passes for location: London (51.5072 / 0.1276)

Sorry there are no passes over London.